Terminal Aerodrome Forecast
Issued by NWS

Current Version | Previous Version | Text Only | Print | Product List | Glossary On
Versions: 1 2 3 4 5 6 7 8 9 10 11 12 13 14 15 16 17 18 19 20
000
FTUS42 KTAE 301120
TAFVLD
TAF
KVLD 301120Z 3012/3112 00000KT 5SM BR BKN003
     FM301400 14007KT P6SM SCT010 SCT030
     FM301800 15007KT P6SM VCTS BKN040CB
      TEMPO 3019/3023 VRB10G20KT 3SM TSRA
     FM310300 10004KT P6SM SCT030=

USA.gov is the U.S. government's official web portal to all federal, state and local government web resources and services.